ヴィルト第2彗星

81P/Wild 2 (2010)

English version
Home page
Updated on February 10, 2013

---------------------------------------------------------------------

・ プロフィール

・ 写真集

・ 軌道要素

Epoch 2010 Feb. 13.0 TT = JDT 2455240.5
T 2010 Feb. 22.70078 TT                                 MPC
q   1.5980762            (2000.0)            P               Q
n   0.15351042     Peri.   41.78998     -0.99858470     -0.03599183
a   3.4544385      Node   136.10009     +0.01951285     -0.93282118
e   0.5373847      Incl.    3.23718     +0.04947569     -0.35853762
P   6.42
From 4015 observations 1996 Aug. 17-2011 Aug. 3, mean residual 0".6.
     Nongravitational parameters A1 = -0.04, A2 = -0.0064.

・ 星図

・ 光度変化

        m1 = 6.3 + 5 logΔ + 18.0 log r(t + 20)  [  ,95]  (              〜2010年 5月28日)
        m1 = 8.2 + 5 logΔ + 12.5 log r          [95,  ]  (2010年 5月28日〜              )

---------------------------------------------------------------------

軌道要素はM.P.E.C. 2011-P44に掲載されたものです。
星図は StellaNavigator Ver.2.0 for Windows (アストロアーツ編著 / アスキー出版局刊) で作成したものです。
光度グラフはComet for Windowsで作成したものです。

---------------------------------------------------------------------

Copyright(C) Seiichi Yoshida (comet@aerith.net). All rights reserved.